TimeCDT,TemperatureF,Dew PointF,Humidity,Sea Level PressureIn,VisibilityMPH,Wind Direction,Wind SpeedMPH,Gust SpeedMPH,PrecipitationIn,Events,Conditions,WindDirDegrees,DateUTC
12:15 AM,38.7,32.2,78,29.80,10.0,West,15.0,21.9,N/A,,Overcast,280,2013-10-21 05:15:00
12:35 AM,38.3,32.0,78,29.80,10.0,WNW,6.9,-,N/A,,Overcast,300,2013-10-21 05:35:00
12:55 AM,38.3,32.2,79,29.80,10.0,West,8.1,17.3,N/A,,Overcast,270,2013-10-21 05:55:00
1:15 AM,38.5,32.2,78,29.81,10.0,West,8.1,17.3,N/A,,Overcast,280,2013-10-21 06:15:00
1:35 AM,38.5,32.4,79,29.81,10.0,WNW,8.1,-,N/A,,Overcast,290,2013-10-21 06:35:00
1:55 AM,38.5,32.9,80,29.82,10.0,WNW,10.4,-,N/A,,Overcast,290,2013-10-21 06:55:00
2:15 AM,38.7,32.9,80,29.83,10.0,WNW,11.5,17.3,N/A,,Overcast,290,2013-10-21 07:15:00
2:35 AM,38.5,32.7,80,29.83,10.0,WNW,5.8,-,N/A,,Overcast,290,2013-10-21 07:35:00
2:55 AM,38.5,32.0,78,29.84,10.0,West,5.8,-,N/A,,Overcast,280,2013-10-21 07:55:00
3:15 AM,38.3,32.0,78,29.84,10.0,WNW,8.1,-,N/A,,Overcast,290,2013-10-21 08:15:00
3:35 AM,37.2,31.1,79,29.84,10.0,NW,5.8,-,N/A,,Mostly Cloudy,310,2013-10-21 08:35:00
3:55 AM,36.0,31.6,84,29.84,10.0,West,5.8,-,N/A,,Scattered Clouds,280,2013-10-21 08:55:00
4:15 AM,36.5,32.5,86,29.85,7.0,WNW,6.9,-,N/A,Rain,Light Rain,290,2013-10-21 09:15:00
4:35 AM,36.7,34.2,91,29.85,10.0,West,5.8,-,N/A,,Overcast,280,2013-10-21 09:35:00
4:55 AM,37.2,33.8,87,29.86,10.0,West,8.1,-,N/A,,Overcast,280,2013-10-21 09:55:00
5:15 AM,37.4,33.3,85,29.86,10.0,WNW,8.1,-,N/A,,Overcast,290,2013-10-21 10:15:00
5:35 AM,35.2,34.9,99,29.86,1.8,WNW,9.2,-,N/A,Rain,Light Rain,290,2013-10-21 10:35:00
5:55 AM,35.2,35.1,99,29.87,7.0,WNW,6.9,-,N/A,Rain,Light Rain,300,2013-10-21 10:55:00
6:15 AM,35.2,35.1,99,29.87,10.0,WNW,8.1,-,N/A,,Overcast,300,2013-10-21 11:15:00
6:35 AM,35.2,34.7,98,29.87,10.0,WNW,5.8,-,N/A,,Overcast,300,2013-10-21 11:35:00
6:55 AM,35.1,35.1,100,29.87,4.0,West,4.6,-,N/A,Rain,Light Rain,280,2013-10-21 11:55:00
7:15 AM,34.9,34.7,99,29.88,10.0,WNW,10.4,-,N/A,,Overcast,290,2013-10-21 12:15:00
7:35 AM,34.7,34.0,97,29.88,10.0,WNW,5.8,-,N/A,,Overcast,290,2013-10-21 12:35:00
7:55 AM,34.2,31.6,90,29.89,10.0,WNW,9.2,18.4,N/A,,Overcast,300,2013-10-21 12:55:00
8:15 AM,33.3,31.8,94,29.90,10.0,West,6.9,-,N/A,,Mostly Cloudy,280,2013-10-21 13:15:00
8:35 AM,33.6,28.9,83,29.91,10.0,WNW,9.2,-,N/A,,Mostly Cloudy,290,2013-10-21 13:35:00
8:55 AM,33.8,27.3,77,29.91,10.0,West,8.1,-,N/A,,Overcast,280,2013-10-21 13:55:00
9:15 AM,34.2,26.8,74,29.92,10.0,West,13.8,19.6,N/A,,Overcast,280,2013-10-21 14:15:00
9:35 AM,34.3,26.2,72,29.92,10.0,West,12.7,19.6,N/A,,Overcast,280,2013-10-21 14:35:00
9:55 AM,34.9,25.2,68,29.93,10.0,WNW,10.4,-,N/A,,Overcast,290,2013-10-21 14:55:00
10:15 AM,34.7,20.3,56,29.93,10.0,West,16.1,23.0,N/A,,Overcast,280,2013-10-21 15:15:00
10:35 AM,35.1,20.5,55,29.93,10.0,West,13.8,20.7,N/A,,Overcast,280,2013-10-21 15:35:00
10:55 AM,35.4,20.3,54,29.93,10.0,West,11.5,19.6,N/A,,Overcast,260,2013-10-21 15:55:00
11:15 AM,35.8,20.5,54,29.93,10.0,West,11.5,17.3,N/A,,Overcast,280,2013-10-21 16:15:00
11:35 AM,36.0,19.9,52,29.92,10.0,West,13.8,19.6,N/A,,Overcast,280,2013-10-21 16:35:00
11:55 AM,36.1,19.2,50,29.93,10.0,WNW,13.8,21.9,N/A,,Overcast,290,2013-10-21 16:55:00
12:15 PM,36.3,18.3,48,29.92,10.0,West,12.7,23.0,N/A,,Overcast,270,2013-10-21 17:15:00
12:55 PM,36.7,19.0,49,29.91,10.0,West,11.5,18.4,N/A,,Overcast,280,2013-10-21 17:55:00
1:15 PM,37.6,19.2,48,29.91,10.0,West,16.1,23.0,N/A,,Overcast,280,2013-10-21 18:15:00
1:35 PM,37.4,19.0,48,29.91,10.0,West,12.7,23.0,N/A,,Overcast,280,2013-10-21 18:35:00
1:55 PM,37.4,19.4,48,29.90,10.0,West,12.7,19.6,N/A,,Overcast,270,2013-10-21 18:55:00
2:15 PM,37.8,21.2,51,29.90,10.0,WSW,15.0,18.4,N/A,,Overcast,250,2013-10-21 19:15:00
2:35 PM,37.4,21.4,52,29.89,10.0,West,11.5,18.4,N/A,,Overcast,260,2013-10-21 19:35:00
2:55 PM,37.4,22.1,54,29.90,10.0,West,19.6,23.0,N/A,,Overcast,270,2013-10-21 19:55:00
3:15 PM,36.7,22.8,57,29.90,10.0,West,16.1,-,N/A,,Overcast,280,2013-10-21 20:15:00
3:35 PM,36.5,23.2,59,29.90,10.0,West,11.5,19.6,N/A,,Overcast,270,2013-10-21 20:35:00
3:55 PM,36.1,23.9,61,29.91,10.0,West,11.5,16.1,N/A,,Overcast,280,2013-10-21 20:55:00
4:15 PM,36.5,23.9,60,29.90,10.0,West,12.7,18.4,N/A,,Overcast,270,2013-10-21 21:15:00
4:35 PM,36.5,23.9,60,29.91,10.0,West,9.2,18.4,N/A,,Overcast,270,2013-10-21 21:35:00
4:55 PM,36.5,22.8,58,29.91,10.0,West,11.5,16.1,N/A,,Overcast,270,2013-10-21 21:55:00
5:15 PM,36.5,21.4,54,29.91,10.0,West,11.5,-,N/A,,Overcast,260,2013-10-21 22:15:00
5:35 PM,36.5,20.3,52,29.92,10.0,West,12.7,19.6,N/A,,Overcast,280,2013-10-21 22:35:00
5:55 PM,36.1,20.3,53,29.92,10.0,West,8.1,-,N/A,,Overcast,280,2013-10-21 22:55:00
6:15 PM,35.8,20.1,53,29.92,10.0,West,9.2,-,N/A,,Overcast,270,2013-10-21 23:15:00
6:35 PM,34.7,20.8,57,29.92,10.0,West,8.1,-,N/A,,Overcast,270,2013-10-21 23:35:00
6:55 PM,35.1,21.0,57,29.93,10.0,West,9.2,-,N/A,,Overcast,260,2013-10-21 23:55:00
7:15 PM,35.2,21.4,57,29.93,10.0,West,8.1,-,N/A,,Overcast,270,2013-10-22 00:15:00
7:35 PM,35.6,21.9,58,29.93,10.0,West,6.9,-,N/A,,Overcast,260,2013-10-22 00:35:00
7:55 PM,35.2,21.7,58,29.92,10.0,WSW,6.9,-,N/A,,Overcast,240,2013-10-22 00:55:00
8:15 PM,35.1,22.1,59,29.92,10.0,WSW,6.9,-,N/A,,Overcast,250,2013-10-22 01:15:00
8:35 PM,34.3,22.1,61,29.92,10.0,WSW,8.1,-,N/A,,Overcast,240,2013-10-22 01:35:00
8:55 PM,34.0,22.1,62,29.92,10.0,WSW,4.6,-,N/A,,Overcast,240,2013-10-22 01:55:00
9:15 PM,33.1,21.9,64,29.92,10.0,SW,4.6,-,N/A,,Mostly Cloudy,220,2013-10-22 02:15:00
9:35 PM,32.2,22.1,66,29.92,10.0,SW,4.6,-,N/A,,Mostly Cloudy,220,2013-10-22 02:35:00
9:55 PM,32.0,22.1,67,29.92,10.0,SW,5.8,-,N/A,,Scattered Clouds,220,2013-10-22 02:55:00
10:15 PM,31.1,22.1,69,29.92,10.0,SW,4.6,-,N/A,,Clear,230,2013-10-22 03:15:00
10:35 PM,30.4,22.5,72,29.92,10.0,SW,3.5,-,N/A,,Clear,230,2013-10-22 03:35:00
10:55 PM,30.0,22.6,74,29.92,10.0,SW,4.6,-,N/A,,Clear,230,2013-10-22 03:55:00
11:15 PM,29.5,22.8,76,29.92,10.0,SW,4.6,-,N/A,,Clear,230,2013-10-22 04:15:00
11:35 PM,30.0,23.0,75,29.92,10.0,SW,4.6,-,N/A,,Clear,230,2013-10-22 04:35:00
11:55 PM,29.8,22.8,75,29.92,10.0,SW,3.5,-,N/A,,Clear,230,2013-10-22 04:55:00